Regional Weather Roundup
Issued by NWS Newport/Morehead, NC

Home | Current Version | Previous Version | Text Only | Print | Product List | Glossary On
Versions: 1 2 3 4 5 6 7 8 9 10 11 12 13 14 15 16 17 18 19 20 21 22 23 24 25 26 27 28 29 30 31 32 33 34 35 36 37 38 39 40 41 42 43 44 45 46 47 48 49 50
000
ASUS42 KMHX 112125
RWRMHX
WEATHER ROUNDUP FOR EASTERN NORTH CAROLINA
NATIONAL WEATHER SERVICE NEWPORT/MOREHEAD CITY NC
400 PM EST THU FEB 11 2016

NOTE: "FAIR" INDICATES FEW OR NO CLOUDS BELOW 12,000 FEET
WITH NO SIGNIFICANT WEATHER AND/OR OBSTRUCTIONS TO VISIBILITY

NCZ015>017-031-032-045>047-102-103-112200-
NORTH COAST

CITY           SKY/WX    TMP DP  RH WIND       PRES   REMARKS
EDENTON        SUNNY     39   7  26 NW12      30.17R
ELIZABETH CITY SUNNY     36   8  31 W15G24    30.15R
KITTY HAWK     CLEAR     37   8  31 W8        30.15R
MANTEO         SUNNY     35  10  35 NW9       30.17R

$$

NCZ045>047-081-094-103-104-112200-
CENTRAL COAST

CITY           SKY/WX    TMP DP  RH WIND       PRES   REMARKS
FRISCO         SUNNY     39  13  34 VRB6G20   30.17R
SWANQUARTER      N/A     39 N/A N/A NW13G22   30.15R

$$

NCZ095-097-098-100-101-112200-
SOUTHERN COAST

CITY           SKY/WX    TMP DP  RH WIND       PRES   REMARKS
BEAUFORT       SUNNY     42  14  32 NW13      30.17R
CEDAR ISLAND     N/A     39 N/A N/A W9G18     30.21S
JACKSONVILLE   SUNNY     44  12  27 NW16      30.17R
PINEY ISLAND   CLEAR    N/A N/A N/A W14       30.17R
WILMINGTON     SUNNY     48  17  29 NW10      30.17R


$$

NCZ011>013-027>030-043-044-078>080-089-090>093-098-112200-
COASTAL PLAIN

CITY           SKY/WX    TMP DP  RH WIND       PRES   REMARKS
AHOSKIE        SUNNY     36   6  27 W5        30.17R
CLINTON        SUNNY     44  17  33 W5        30.16S
ELIZABETHTOWN  SUNNY     45  16  31 W8        30.16S
GOLDSBORO      SUNNY     43   7  22 W10G21    30.15R
GREENVILLE     SUNNY     39   7  26 NW10      30.18R
HAVELOCK       SUNNY     42   9  25 W15G21    30.18R
KENANSVILLE    SUNNY     42  13  30 W10       30.18R
KINSTON        SUNNY     41   7  24 NW12G17   30.17S
NEW BERN       SUNNY     42  10  27 W10       30.18R
RICHLANDS      SUNNY     43  12  28 W6        30.18R
ROCKY MOUNT    SUNNY     39   6  25 NW14      30.16S
WASHINGTON     SUNNY     39   7  26 W9        30.17R
WHITEVILLE     SUNNY     46  17  31 NW3       30.16R

$$

AMZ130-135-150-152-154-156-158-170-250-252-270-ANZ085-086-088-633-658-670-112200-
MARINE OBSERVATIONS

STATION/POSITION TIME  TEMP    WIND        PRES    WAVE   SWELL
                       AIR SEA DIR/SP/G            HT/PER HT/PER
                 (UTC) (F)     (DEG/KT/KT) (MB)    (FT/S) (FT/S)
CHESAPEAKE LIGHT 2100   32     300/ 14/ 16 1021.6
64 E VA BEACH    2050   32 48  300/ 23/ 31 1020.1    6/ 6   2/ 9
DUCK             2100   35     290/ 12/ 20 1020.4
2 E DUCK         2111      44                N/A     2/12
OREGON INLET     2100   35 41  290/ 10/ 17 1021.3
13E OREGON INLT  2100      47                N/A     5/ 6   2/12
HATTERAS CG      2100   37 45  280/ 17/ 19 1021.3
DIAMOND BUOY     2050   38 57  280/ 16/ 19 1021.8    5/ 4   2/13
CAPE LOOKOUT     NOT AVBL
BEAUFORT LAB     2100   42 44  310/  7/ 10 1020.6
30 SE NEW RVR IN 2108   44 59              1021.9
30 SE NEW RVR IN 2055      59                N/A     5/ 8
27 SE WRIGHTSVLE 2108   44 61  280/  8/ 14 1020.0
5 SE WRIGHTSVLE  2008   44 50  280/ 10/ 16 1021.8
225 S CAPE HAT   2050   54 68  300/ 19/ 25   N/A    10/ 9
41 SE CHARLESTON 2050   47 62  230/  4/  8 1022.3    4/ 6   3/ 6

$$



USA.gov is the U.S. government's official web portal to all federal, state and local government web resources and services.